"Pseudo-MPEC" for ZTF09ob

Created 2020 Jan 15 3:07:13 UT using Find_Orb

Click here for an explanation of pseudo-MPECs

 
 Astrometry: 
     ZTF09ob  C2020 01 14.15942107 40 27.21 +14 05 14.9    ~1EB7 18.51gUNEOCPI41
     ZTF09ob  C2020 01 14.15942907 40 26.94 +14 05 18.2    ~1F0b 18.42gUNEOCPI41
     ZTF09ob  C2020 01 14.16289307 40 25.91 +14 05 32.7    ~1EB7 18.51gUNEOCPI41
     ZTF09ob  C2020 01 14.16290107 40 25.65 +14 05 35.0    ~1F0b 18.42gUNEOCPI41
     ZTF09ob  C2020 01 14.17890007 40 20.32 +14 07 06.0    ~1EB7 18.04RUNEOCPI41
     ZTF09ob  C2020 01 14.17891107 40 20.28 +14 07 06.0    ~1F0b       UNEOCPI41
     ZTF09ob  C2020 01 14.18237307 40 19.11 +14 07 22.8    ~1EB7 18.04RUNEOCPI41
     ZTF09ob  C2020 01 14.18238307 40 18.98 +14 07 22.9    ~1F0b       UNEOCPI41

Station data:
(I41) Palomar Mountain--ZTF  (N33.357340 W116.859780)  US/California. 1.2-m
   f/2.44 Oschin Schmidt + CCD.

Orbital elements:  ZTF09ob
   Perihelion 2019 Sep 3.832303 TT = 19:58:31 (JD 2458730.332303)
Epoch 2020 Jan 14.0 TT = JDT 2458862.5   Earth MOID: 0.0173   AutoNEOCP
M 132.81912451                      (J2000 ecliptic)
n   1.00492879     Peri.  218.80507
a   0.98714099     Node   119.28469
e   0.0256615      Incl.    1.46353
P   0.98/358.23d   H   26.1     G   0.15   q 0.96180946  Q 1.01247252
From 8 observations 2020 Jan. 14 (33.1 min); mean residual 1".55
Residuals in arcseconds: 
200114 I41  2.7+  .71-    200114 I41  2.8-  .12-    200114 I41  .87+  1.1-    
200114 I41  1.2-  2.5+    200114 I41  .53+  1.5+    200114 I41  .97-  1.0-    
200114 I41  .95+  2.4-    200114 I41  .01+  1.4+    

Ephemerides (geocentric):
Date (UTC) HH   RA              Dec         delta   r     elong  mag
---- -- -- --  -------------   -----------  ------ ------ -----  ---
2020 01 15 03  07 35 48.257   +15 30 13.22  .02163 1.0051 173.9 18.3
2020 01 15 04  07 35 37.143   +15 33 43.50  .02164 1.0051 173.9 18.3
2020 01 15 05  07 35 26.032   +15 37 13.60  .02165 1.0051 174.0 18.3
2020 01 15 06  07 35 14.922   +15 40 43.52  .02166 1.0051 174.0 18.3
2020 01 15 07  07 35 03.814   +15 44 13.25  .02166 1.0051 174.0 18.3
2020 01 15 08  07 34 52.709   +15 47 42.81  .02167 1.0051 174.0 18.3
2020 01 15 09  07 34 41.606   +15 51 12.18  .02168 1.0051 174.1 18.3
2020 01 15 10  07 34 30.505   +15 54 41.37  .02169 1.0051 174.1 18.3
2020 01 15 11  07 34 19.406   +15 58 10.36  .02170 1.0052 174.1 18.3
2020 01 15 12  07 34 08.310   +16 01 39.18  .02171 1.0052 174.1 18.3
2020 01 15 13  07 33 57.216   +16 05 07.80  .02172 1.0052 174.1 18.3
2020 01 15 14  07 33 46.124   +16 08 36.23  .02173 1.0052 174.2 18.3
2020 01 15 15  07 33 35.035   +16 12 04.47  .02174 1.0052 174.2 18.3
2020 01 15 16  07 33 23.949   +16 15 32.52  .02175 1.0052 174.2 18.3
2020 01 15 17  07 33 12.865   +16 19 00.38  .02176 1.0052 174.2 18.3
2020 01 15 18  07 33 01.784   +16 22 28.04  .02177 1.0052 174.2 18.3
2020 01 15 19  07 32 50.705   +16 25 55.50  .02178 1.0053 174.2 18.3
2020 01 15 20  07 32 39.630   +16 29 22.77  .02179 1.0053 174.2 18.3
2020 01 15 21  07 32 28.557   +16 32 49.84  .02180 1.0053 174.2 18.3
2020 01 15 22  07 32 17.487   +16 36 16.70  .02181 1.0053 174.2 18.3
2020 01 15 23  07 32 06.421   +16 39 43.37  .02182 1.0053 174.2 18.3
2020 01 16 00  07 31 55.357   +16 43 09.83  .02183 1.0053 174.2 18.3
2020 01 16 01  07 31 44.296   +16 46 36.09  .02184 1.0053 174.2 18.3
2020 01 16 02  07 31 33.239   +16 50 02.15  .02185 1.0053 174.2 18.3
2020 01 16 03  07 31 22.185   +16 53 28.00  .02186 1.0054 174.2 18.3
2020 01 16 04  07 31 11.134   +16 56 53.64  .02187 1.0054 174.2 18.3
2020 01 16 05  07 31 00.087   +17 00 19.08  .02188 1.0054 174.1 18.3
2020 01 16 06  07 30 49.043   +17 03 44.30  .02189 1.0054 174.1 18.3
2020 01 16 07  07 30 38.002   +17 07 09.32  .02190 1.0054 174.1 18.3
2020 01 16 08  07 30 26.965   +17 10 34.12  .02191 1.0054 174.1 18.3
2020 01 16 09  07 30 15.932   +17 13 58.71  .02192 1.0054 174.1 18.3
2020 01 16 10  07 30 04.902   +17 17 23.09  .02193 1.0054 174.0 18.3
2020 01 16 11  07 29 53.876   +17 20 47.25  .02194 1.0055 174.0 18.3
2020 01 16 12  07 29 42.854   +17 24 11.20  .02196 1.0055 174.0 18.3
2020 01 16 13  07 29 31.836   +17 27 34.93  .02197 1.0055 174.0 18.3
2020 01 16 14  07 29 20.822   +17 30 58.43  .02198 1.0055 173.9 18.3
2020 01 16 15  07 29 09.812   +17 34 21.72  .02199 1.0055 173.9 18.3
2020 01 16 16  07 28 58.805   +17 37 44.79  .02200 1.0055 173.9 18.3
2020 01 16 17  07 28 47.803   +17 41 07.64  .02201 1.0055 173.8 18.3
2020 01 16 18  07 28 36.806   +17 44 30.26  .02202 1.0055 173.8 18.3
2020 01 16 19  07 28 25.812   +17 47 52.66  .02203 1.0056 173.7 18.3
2020 01 16 20  07 28 14.823   +17 51 14.84  .02204 1.0056 173.7 18.3
2020 01 16 21  07 28 03.838   +17 54 36.79  .02206 1.0056 173.7 18.3
2020 01 16 22  07 27 52.858   +17 57 58.51  .02207 1.0056 173.6 18.4
2020 01 16 23  07 27 41.882   +18 01 20.00  .02208 1.0056 173.6 18.4
2020 01 17 00  07 27 30.911   +18 04 41.26  .02209 1.0056 173.5 18.4
2020 01 17 01  07 27 19.944   +18 08 02.30  .02210 1.0056 173.5 18.4
2020 01 17 02  07 27 08.982   +18 11 23.10  .02211 1.0056 173.4 18.4